When you browse on this site, cookies collect data to enhance your experience and personalize the content and advertising you see.
Visit our Privacy Policy to learn more. By continuing to use the site, you agree to this use of cookies and data.
EN

Hourly Weather Vratsa

Today, 13 July, Monday

Time Temperature Precipitation Wind Pressure Humidity
00:00 +15°C° 0 mm 2 mps 710 mmHg 76%
01:00 +14°C° 0 mm 3 mps 710 mmHg 76%
02:00 +14°C° 0 mm 2 mps 710 mmHg 77%
03:00 +13°C° 0 mm 2 mps 710 mmHg 77%
04:00 +13°C° 0 mm 2 mps 710 mmHg 77%
05:00 +12°C° 0 mm 2 mps 709 mmHg 77%
06:00 +13°C° 0 mm 2 mps 710 mmHg 72%
07:00 +14°C° 0 mm 3 mps 710 mmHg 67%
08:00 +15°C° 0 mm 5 mps 710 mmHg 61%
09:00 +16°C° 0 mm 5 mps 711 mmHg 58%
10:00 +17°C° 0 mm 5 mps 711 mmHg 56%
11:00 +19°C° 0 mm 5 mps 711 mmHg 54%
12:00 +19°C° 0 mm 4 mps 710 mmHg 55%
13:00 +20°C° 0 mm 4 mps 710 mmHg 56%
14:00 +20°C° 0 mm 4 mps 710 mmHg 56%
15:00 +20°C° 0.1 mm 4 mps 710 mmHg 58%
16:00 +20°C° 0.1 mm 3 mps 710 mmHg 60%
17:00 +20°C° 0.1 mm 3 mps 709 mmHg 62%
18:00 +18°C° 0 mm 2 mps 709 mmHg 68%
19:00 +17°C° 0 mm 2 mps 709 mmHg 73%
20:00 +15°C° 0 mm 1 mps 709 mmHg 79%
21:00 +14°C° 0 mm 1 mps 709 mmHg 81%
22:00 +14°C° 0 mm 1 mps 709 mmHg 83%
23:00 +13°C° 0 mm 1 mps 710 mmHg 84%

Tomorrow, 14 July, Tuesday

Time Temperature Precipitation Wind Pressure Humidity
00:00 +13°C° 0 mm 1 mps 710 mmHg 84%
01:00 +12°C° 0 mm 1 mps 710 mmHg 84%
02:00 +12°C° 0 mm 1 mps 710 mmHg 84%
03:00 +12°C° 0 mm 1 mps 709 mmHg 86%
04:00 +11°C° 0 mm 1 mps 709 mmHg 87%
05:00 +11°C° 0 mm 1 mps 709 mmHg 88%
06:00 +13°C° 0 mm 1 mps 709 mmHg 82%
07:00 +15°C° 0 mm 1 mps 710 mmHg 76%
08:00 +18°C° 0 mm 1 mps 710 mmHg 70%
09:00 +19°C° 0 mm 1 mps 710 mmHg 64%
10:00 +21°C° 0 mm 1 mps 710 mmHg 58%
11:00 +22°C° 0 mm 1 mps 710 mmHg 52%
12:00 +23°C° 0 mm 1 mps 710 mmHg 50%
13:00 +24°C° 0 mm 2 mps 709 mmHg 47%
14:00 +24°C° 0 mm 2 mps 709 mmHg 45%
15:00 +24°C° 0 mm 2 mps 709 mmHg 46%
16:00 +24°C° 0 mm 2 mps 709 mmHg 47%
17:00 +24°C° 0 mm 2 mps 708 mmHg 49%
18:00 +21°C° 0 mm 2 mps 708 mmHg 56%
19:00 +19°C° 0 mm 2 mps 708 mmHg 64%
20:00 +18°C° 0 mm 1 mps 708 mmHg 71%
21:00 +16°C° 0 mm 1 mps 708 mmHg 72%
22:00 +16°C° 0 mm 1 mps 708 mmHg 73%
23:00 +15°C° 0 mm 1 mps 708 mmHg 73%

Day after tomorrow, 15 July, Wednesday

Time Temperature Precipitation Wind Pressure Humidity
00:00 +15°C° 0 mm 1 mps 708 mmHg 73%
01:00 +15°C° 0 mm 1 mps 708 mmHg 72%
02:00 +14°C° 0 mm 2 mps 709 mmHg 71%
03:00 +14°C° 0 mm 2 mps 708 mmHg 71%
04:00 +14°C° 0 mm 2 mps 708 mmHg 71%
05:00 +13°C° 0 mm 2 mps 708 mmHg 72%
06:00 +15°C° 0 mm 1 mps 709 mmHg 67%
07:00 +18°C° 0 mm 1 mps 709 mmHg 63%
08:00 +20°C° 0 mm 1 mps 710 mmHg 59%
09:00 +21°C° 0 mm 1 mps 710 mmHg 56%
10:00 +23°C° 0 mm 1 mps 710 mmHg 52%
11:00 +25°C° 0 mm 1 mps 710 mmHg 48%
12:00 +25°C° 0 mm 1 mps 709 mmHg 46%
13:00 +26°C° 0 mm 1 mps 709 mmHg 45%
14:00 +27°C° 0 mm 1 mps 709 mmHg 43%
15:00 +27°C° 0.1 mm 1 mps 709 mmHg 45%
16:00 +26°C° 0.1 mm 1 mps 709 mmHg 47%
17:00 +26°C° 0.1 mm 1 mps 708 mmHg 49%
18:00 +25°C° 0.1 mm 1 mps 708 mmHg 53%
19:00 +23°C° 0.1 mm 1 mps 708 mmHg 58%
20:00 +21°C° 0.1 mm 1 mps 708 mmHg 63%
21:00 +20°C° 0 mm 1 mps 708 mmHg 64%
22:00 +19°C° 0 mm 1 mps 708 mmHg 66%
23:00 +18°C° 0 mm 1 mps 708 mmHg 67%

16 July, Thursday

Time Temperature Precipitation Wind Pressure Humidity
00:00 +18°C° 0 mm 1 mps 708 mmHg 67%
01:00 +17°C° 0 mm 2 mps 708 mmHg 68%
02:00 +17°C° 0 mm 2 mps 708 mmHg 68%
03:00 +16°C° 0.2 mm 2 mps 707 mmHg 73%
04:00 +15°C° 0.2 mm 1 mps 707 mmHg 77%
05:00 +14°C° 0.2 mm 1 mps 707 mmHg 82%
06:00 +16°C° 0.1 mm 1 mps 707 mmHg 79%
07:00 +18°C° 0.1 mm 1 mps 707 mmHg 75%
08:00 +20°C° 0.1 mm 1 mps 708 mmHg 72%
09:00 +21°C° 0.1 mm 1 mps 708 mmHg 68%
10:00 +21°C° 0.1 mm 2 mps 708 mmHg 63%
11:00 +24°C° 0.1 mm 2 mps 708 mmHg 59%
12:00 +25°C° 0.6 mm 2 mps 708 mmHg 57%
13:00 +25°C° 0.6 mm 1 mps 707 mmHg 55%
14:00 +26°C° 0.6 mm 1 mps 707 mmHg 54%
15:00 +26°C° 0.4 mm 1 mps 707 mmHg 53%
16:00 +26°C° 0.4 mm 1 mps 707 mmHg 53%
17:00 +26°C° 0.4 mm 2 mps 706 mmHg 53%
18:00 +24°C° 0.2 mm 1 mps 706 mmHg 58%
19:00 +23°C° 0.2 mm 1 mps 706 mmHg 63%
20:00 +21°C° 0.2 mm 1 mps 706 mmHg 68%
21:00 +20°C° 0 mm 1 mps 706 mmHg 70%
22:00 +19°C° 0 mm 1 mps 706 mmHg 72%
23:00 +18°C° 0 mm 1 mps 707 mmHg 73%

17 July, Friday

Time Temperature Precipitation Wind Pressure Humidity
00:00 +18°C° 0 mm 1 mps 706 mmHg 74%
01:00 +18°C° 0 mm 1 mps 706 mmHg 75%
02:00 +18°C° 0 mm 1 mps 706 mmHg 76%
03:00 +16°C° 0 mm 1 mps 706 mmHg 77%
04:00 +16°C° 0 mm 1 mps 706 mmHg 79%
05:00 +16°C° 0 mm 1 mps 706 mmHg 80%
06:00 +18°C° 0 mm 1 mps 706 mmHg 75%
07:00 +20°C° 0 mm 1 mps 707 mmHg 70%
08:00 +20°C° 0 mm 0 mps 707 mmHg 65%
09:00 +24°C° 0 mm 1 mps 707 mmHg 60%
10:00 +25°C° 0 mm 1 mps 707 mmHg 55%
11:00 +27°C° 0 mm 1 mps 707 mmHg 50%
12:00 +27°C° 0.1 mm 1 mps 707 mmHg 48%
13:00 +28°C° 0.1 mm 1 mps 707 mmHg 46%
14:00 +28°C° 0.1 mm 2 mps 706 mmHg 44%
15:00 +28°C° 0.1 mm 2 mps 706 mmHg 46%
16:00 +28°C° 0.1 mm 2 mps 706 mmHg 47%
17:00 +28°C° 0.1 mm 2 mps 706 mmHg 48%
18:00 +26°C° 0.1 mm 2 mps 705 mmHg 55%
19:00 +24°C° 0.1 mm 2 mps 705 mmHg 61%
20:00 +22°C° 0.1 mm 1 mps 705 mmHg 68%
21:00 +21°C° 0 mm 1 mps 705 mmHg 69%
22:00 +21°C° 0 mm 1 mps 705 mmHg 71%
23:00 +20°C° 0 mm 1 mps 706 mmHg 72%

18 July, Saturday

Time Temperature Precipitation Wind Pressure Humidity
00:00 +19°C° 0 mm 1 mps 706 mmHg 75%
01:00 +18°C° 0 mm 1 mps 705 mmHg 78%
02:00 +17°C° 0 mm 2 mps 705 mmHg 81%
03:00 +16°C° 0 mm 2 mps 705 mmHg 83%
04:00 +16°C° 0 mm 1 mps 705 mmHg 86%
05:00 +16°C° 0 mm 1 mps 705 mmHg 89%
06:00 +16°C° 0.3 mm 2 mps 705 mmHg 88%
07:00 +17°C° 0.3 mm 2 mps 705 mmHg 86%
08:00 +18°C° 0.3 mm 2 mps 706 mmHg 85%
09:00 +18°C° 1.1 mm 2 mps 706 mmHg 85%
10:00 +18°C° 1.1 mm 2 mps 706 mmHg 86%
11:00 +18°C° 1.1 mm 2 mps 705 mmHg 86%
12:00 +18°C° 0.7 mm 2 mps 705 mmHg 86%
13:00 +18°C° 0.7 mm 2 mps 705 mmHg 87%
14:00 +18°C° 0.7 mm 2 mps 705 mmHg 87%
15:00 +18°C° 0.4 mm 2 mps 705 mmHg 86%
16:00 +19°C° 0.4 mm 1 mps 704 mmHg 86%
17:00 +20°C° 0.4 mm 1 mps 704 mmHg 86%
18:00 +19°C° 0.3 mm 1 mps 704 mmHg 88%
19:00 +19°C° 0.3 mm 1 mps 704 mmHg 90%
20:00 +18°C° 0.3 mm 1 mps 705 mmHg 93%
21:00 +18°C° 1.7 mm 1 mps 705 mmHg 94%
22:00 +18°C° 1.7 mm 1 mps 705 mmHg 95%
23:00 +16°C° 1.7 mm 1 mps 705 mmHg 96%
Show more